sat.trackr.live / text

‹ back to catalog

WARATAH SEED-1

NORAD 60469 · 2024-149B

PAYLOAD ACTIVE UNKNOWN

§ Identity

Operator
Country
AUS
Launch date
2024-08-16
Launch site
AFWTR
Launch vehicle
Mass (kg)
RCS (m²)

External: N2YO · Heavens-Above · Gunter

§ Orbital elements

Epoch: 2026-09-22T16:44:15.123264Z

Period
93.62 min
Inclination
97.3631°
Eccentricity
0.0001074
Mean motion
15.38150572 rev/d
Perigee alt
450.8 km
Apogee alt
452.3 km
Semi-major
6,829.7 km
B*
2.7399e-4
RAAN
346.4832°
Arg perigee
182.0828°
Mean anomaly
178.0413°
Rev number
11,709

§ Raw data

WARATAH SEED-11 60469U 24149B   26265.69739726  .00010212  00000+0  27399-3 0  99932 60469  97.3631 346.4832 0001074 182.0828 178.0413 15.38150572117096

JSON: /api/v1/satellites/60469 · /tle

For live sub-satellite position, see the globe view (requires WebGL).

§ Visibility from observer

Set your observer location to see the next 7 days of passes ≥ 10°. The values pass through the URL so the page stays shareable.

No JS? Fill the form by hand. The geolocation button needs JavaScript.

§ Radio — SatNOGS DB

ModeDescriptionDownlinkUplink
BPSK Mode U - BPSK1k2 - G3RUH 400.650 MHz
QPSK Mode S - Transmitter (inactive) 2.259 GHz

2 transmitters · refreshed weekly from db.satnogs.org